Swansboro, NC

11:35 PM EDT on March 22, 2017 (GMT -0400)
Bogue McAlf

Weather History for KNJM - October, 2014

Change the Weather History Date:

Tuesday, October 21, 2014

  Actual Average (KNKT) Record (KNKT)
Temperature  
Mean Temperature 64 °F -  
Max Temperature 75 °F 70 °F 82 °F (2005)
Min Temperature 55 °F 50 °F 39 °F (2008)
Degree Days  
Heating Degree Days 1    
Growing Degree Days 14 (Base 50)    
Moisture  
Dew Point 57 °F    
Average Humidity 76    
Maximum Humidity 93    
Minimum Humidity 53    
Precipitation  
Precipitation 0.00 in - - ()
Sea Level Pressure  
Sea Level Pressure 29.92 in    
Wind  
Wind Speed 3 mph (West)    
Max Wind Speed 12 mph    
Max Gust Speed -    
Visibility 10 miles    
Events      
Averages and records for this station are not official NWS values.
T = Trace of Precipitation, MM = Missing Value Source: NWS Daily Summary

Daily Weather History Graph

Daily Weather History Graph

Search for Another Location

Airport or City:

Trip Planner

Search our weather history database for the weather conditions in past years. The results will help you decide how hot, cold, wet, or windy it might be!

Date:

Astronomy

Oct. 21, 2014 Rise Set
Actual Time 7:18 AM EDT 6:26 PM EDT
Civil Twilight 6:53 AM EDT 6:51 PM EDT
Nautical Twilight 6:23 AM EDT 7:21 PM EDT
Astronomical Twilight 5:54 AM EDT 7:50 PM EDT
Moon 5:06 AM EDT (10/21) 5:14 PM EDT (10/21)
Length of Visible Light 11h 58m
Length of Day
11h 07m
Waning Crescent, 5% of the Moon is Illuminated
Oct 21
Waning Crescent
Oct 23
New
Oct 30
First Quarter
Nov 6
Full
Nov 14
Last Quarter

Hourly Weather History & Observations

Time (EDT) Temp. Dew Point Humidity Pressure Visibility Wind Dir Wind Speed Gust Speed Precip Events Conditions
12:57 AM 60.1 °F 57.9 °F 93% 29.99 in 10.0 mi Calm Calm - N/A   Partly Cloudy
1:57 AM 59.0 °F 57.0 °F 93% 29.97 in 10.0 mi Calm Calm - N/A   Partly Cloudy
2:57 AM 59.0 °F 57.0 °F 93% 29.96 in 10.0 mi NNW 3.5 mph - N/A   Scattered Clouds
3:57 AM 57.0 °F 55.0 °F 93% 29.95 in 10.0 mi NW 3.5 mph - N/A   Clear
4:57 AM 55.9 °F 54.0 °F 93% 29.95 in 10.0 mi Calm Calm - N/A   Clear
5:57 AM 55.9 °F 54.0 °F 93% 29.96 in 10.0 mi Calm Calm - N/A   Clear
6:57 AM 55.9 °F 54.0 °F 93% 29.96 in 10.0 mi Calm Calm - N/A   Mostly Cloudy
7:57 AM 57.0 °F 55.0 °F 93% 29.96 in 10.0 mi Calm Calm - N/A   Mostly Cloudy
8:57 AM 64.0 °F 59.0 °F 84% 29.96 in 10.0 mi NW 5.8 mph - N/A   Partly Cloudy
9:57 AM 69.1 °F 59.0 °F 70% 29.96 in 10.0 mi NNW 5.8 mph - N/A   Clear
10:57 AM 72.0 °F 55.9 °F 57% 29.94 in 10.0 mi WNW 6.9 mph - N/A   Clear
11:57 AM 73.0 °F 55.0 °F 53% 29.92 in 10.0 mi WNW 6.9 mph - N/A   Clear
12:57 PM 73.4 °F 55.4 °F 53% 29.89 in 10.0 mi SW 9.2 mph - N/A   Partly Cloudy
2:57 PM 73.9 °F 59.0 °F 59% 29.86 in 10.0 mi SSW 10.4 mph - N/A   Clear
3:57 PM 73.0 °F 57.9 °F 59% 29.85 in 10.0 mi SSW 11.5 mph - N/A   Clear
4:57 PM 73.0 °F 57.9 °F 59% 29.86 in 10.0 mi SW 10.4 mph - N/A   Clear
5:57 PM 71.1 °F 59.0 °F 66% 29.86 in 10.0 mi SSW 9.2 mph - N/A   Clear
6:57 PM 70.0 °F 60.1 °F 71% 29.87 in 10.0 mi SW 6.9 mph - N/A   Clear
7:57 PM 69.1 °F 59.0 °F 70% 29.88 in 10.0 mi SW 4.6 mph - N/A   Scattered Clouds
8:57 PM 66.9 °F 60.1 °F 79% 29.88 in 10.0 mi WSW 3.5 mph - N/A   Scattered Clouds
9:57 PM 66.9 °F 57.9 °F 73% 29.89 in 10.0 mi WSW 4.6 mph - N/A   Clear
10:57 PM 66.0 °F 57.0 °F 73% 29.88 in 10.0 mi West 5.8 mph - N/A   Partly Cloudy
11:57 PM 64.9 °F 57.0 °F 75% 29.86 in 10.0 mi West 3.5 mph - N/A   Clear